Вернуться в каталог

SL-8 DEB

АктивенLEO
NORAD 6210·DEBRIS·🇷🇺 Russia

Запущен Sep 29, 1972 с Plesetsk Cosmodrome

Loading…

Ближайшие Пролёты (ближайшие 24 часа)

TLE

СвежийSource: Space-Track

Эпоха: Sep 14, 2026, 14:43 UTC

1 06210U 72074C   26257.61337269 -.00000065  00000-0  16972-4 0  9999
2 06210  65.8274  23.1097 0010545 345.8722  25.7188 13.73653410704781

Отслеживайте SL-8 DEB в реальном времени с AllMySat

Download on the App Store